Location: Newark
(39.6867°N, 100.6772°W)
Time: 11:01:29
(UTC+00:00)

Explorer 11/Cluster Stage 4 - Pass Details

Date: 21 October 2019
Orbit: 467 x 1259 km, 28.8° (Epoch: 20 November)

Event Time Altitude Azimuth Distance (km) Brightness Sun altitude
Rises 17:03:54 0° 241° (WSW) 2,486 9.2 36.0°
Reaches altitude 10° 17:06:36 10° 219° (SW) 1,640 8.7 36.2°
Maximum altitude 17:09:00 16° 178° (S) 1,337 9.1 36.4°
Drops below altitude 10° 17:11:33 10° 138° (SE) 1,767 9.6 36.6°
Sets 17:14:37 0° 117° (ESE) 2,782 10.0 36.8°
